Tracking 19575 objects as of 19-Feb-2019
HD Live streaming from Space Station
objects crossing your sky now

RADUGA 4

Track RADUGA 4 now!
RADUGA 4 is classified as:


NORAD ID: 10987
Int'l Code: 1978-073A
Perigee: 35,741.1 km
Apogee: 35,850.2 km
Inclination: 11.1 °
Period: 1,436.2 minutes
Semi major axis: 42166 km
RCS: 1 m2 (large)
Launch date: July 18, 1978
Source: Commonwealth of Independent States (former USSR) (CIS)
Launch site: TYURATAM MISSILE AND SPACE COMPLEX (TTMTR)
aabbcc
Your satellite tracking list
Your tracking list is empty




NASA's NSSDC Master Catalog

Two Line Element Set (TLE):
1 10987U 78073A   19049.66407222 -.00000359 +00000-0 +00000-0 0  9990
2 10987 011.1114 311.7578 0012936 331.6876 214.9722 01.00264966092779
Source of the keplerian elements: AFSPC